Back to catalog

ARIANE 42P+ DEB

LostHEO
NORAD 28280·DEBRIS·🇫🇷 France

Launched Oct 28, 1992 from Guiana Space Centre

Loading…

Next Passes (next 24 hours)

TLE

StaleSource: Space-Track

Epoch: Jun 9, 2025, 07:27 UTC

1 28280U 92072P   25160.31074310 -.00000059  00000-0  00000+0 0  9997
2 28280   6.3750 181.5630 6519997  68.0240  10.5030  2.90905356245068

Track ARIANE 42P+ DEB in real time with AllMySat

Download on the App Store